Time,TemperatureF,DewpointF,PressureIn,WindDirection,WindDirectionDegrees,WindSpeedMPH,WindSpeedGustMPH,Humidity,HourlyPrecipIn,Conditions,Clouds,dailyrainin,SoftwareType,DateUTC
2013-04-28 00:01:00,56.8,36.3,30.08,South,180,0.0,0.0,46,0.00,,---,0.00,VWS V14.01,2013-04-28 04:01:00,
2013-04-28 00:03:00,56.4,35.9,30.08,SSE,158,0.0,0.0,46,0.00,,---,0.00,VWS V14.01,2013-04-28 04:03:00,
2013-04-28 00:05:00,56.4,35.9,30.08,SSE,158,0.0,0.0,46,0.00,,---,0.00,VWS V14.01,2013-04-28 04:05:00,
2013-04-28 00:06:00,56.4,35.9,30.08,SSE,158,0.0,0.0,46,0.00,,---,0.00,VWS V14.01,2013-04-28 04:06:00,
2013-04-28 00:09:00,56.3,35.8,30.08,SSE,158,0.0,0.0,46,0.00,,---,0.00,VWS V14.01,2013-04-28 04:09:00,
2013-04-28 00:14:00,55.9,35.4,30.08,SSE,158,0.0,0.0,46,0.00,,---,0.00,VWS V14.01,2013-04-28 04:14:00,
2013-04-28 00:19:00,55.7,35.3,30.08,SSE,158,0.0,0.0,46,0.00,,---,0.00,VWS V14.01,2013-04-28 04:19:00,
2013-04-28 00:24:00,55.5,35.1,30.08,SSE,158,0.0,0.0,46,0.00,,---,0.00,VWS V14.01,2013-04-28 04:24:00,
2013-04-28 00:29:00,55.2,35.3,30.08,SSE,158,0.0,0.0,47,0.00,,---,0.00,VWS V14.01,2013-04-28 04:29:00,
2013-04-28 00:34:00,55.0,35.2,30.07,SSE,158,0.0,0.0,47,0.00,,---,0.00,VWS V14.01,2013-04-28 04:34:00,
2013-04-28 00:39:00,55.0,35.2,30.07,SSE,158,0.0,0.0,47,0.00,,---,0.00,VWS V14.01,2013-04-28 04:39:00,
2013-04-28 00:44:00,54.6,34.8,30.07,SSE,158,0.0,0.0,47,0.00,,---,0.00,VWS V14.01,2013-04-28 04:44:00,
2013-04-28 00:49:00,54.5,34.7,30.07,SSE,158,0.0,0.0,47,0.00,,---,0.00,VWS V14.01,2013-04-28 04:49:00,
2013-04-28 00:54:00,54.1,34.3,30.07,SSE,158,0.0,0.0,47,0.00,,---,0.00,VWS V14.01,2013-04-28 04:54:00,
2013-04-28 00:59:00,53.9,34.2,30.07,SSE,158,0.0,0.0,47,0.00,,---,0.00,VWS V14.01,2013-04-28 04:59:00,
2013-04-28 01:04:00,53.9,-15.4,30.07,SSE,158,0.0,0.0,47,0.00,,---,0.00,VWS V14.01,2013-04-28 05:04:00,
2013-04-28 01:09:00,53.9,-15.4,30.07,SSE,158,0.0,0.0,47,0.00,,---,0.00,VWS V14.01,2013-04-28 05:09:00,
2013-04-28 01:15:00,53.2,34.0,30.07,SSE,158,0.0,0.0,48,0.00,,---,0.00,VWS V14.01,2013-04-28 05:15:00,
2013-04-28 01:20:00,52.8,34.2,30.07,SSE,158,0.0,0.0,49,0.00,,---,0.00,VWS V14.01,2013-04-28 05:20:00,
2013-04-28 01:25:00,52.8,34.2,30.07,South,180,0.0,0.0,49,0.00,,---,0.00,VWS V14.01,2013-04-28 05:25:00,
2013-04-28 01:30:00,52.5,33.9,30.07,SSE,158,0.0,0.0,49,0.00,,---,0.00,VWS V14.01,2013-04-28 05:30:00,
2013-04-28 01:35:00,52.5,33.9,30.07,South,180,0.0,0.0,49,0.00,,---,0.00,VWS V14.01,2013-04-28 05:35:00,
2013-04-28 01:40:00,52.3,33.7,30.07,SSE,158,0.0,0.0,49,0.00,,---,0.00,VWS V14.01,2013-04-28 05:40:00,
2013-04-28 01:45:00,52.3,34.2,30.07,SSE,158,0.0,0.0,50,0.00,,---,0.00,VWS V14.01,2013-04-28 05:45:00,
2013-04-28 01:50:00,52.1,34.0,30.06,SSE,158,0.0,0.0,50,0.00,,---,0.00,VWS V14.01,2013-04-28 05:50:00,
2013-04-28 01:55:00,52.1,34.0,30.06,SSE,158,0.0,0.0,50,0.00,,---,0.00,VWS V14.01,2013-04-28 05:55:00,
2013-04-28 02:00:00,52.1,34.0,30.06,SSE,158,0.0,0.0,50,0.00,,---,0.00,VWS V14.01,2013-04-28 06:00:00,
2013-04-28 02:05:00,52.1,-14.2,30.06,SSE,158,0.0,0.0,50,0.00,,---,0.00,VWS V14.01,2013-04-28 06:05:00,
2013-04-28 02:10:00,52.1,-14.2,30.06,SSE,158,0.0,0.0,50,0.00,,---,0.00,VWS V14.01,2013-04-28 06:10:00,
2013-04-28 02:16:00,51.6,34.1,30.06,SSE,158,0.0,0.0,51,0.00,,---,0.00,VWS V14.01,2013-04-28 06:16:00,
2013-04-28 02:21:00,51.6,34.1,30.05,SSE,158,0.0,0.0,51,0.00,,---,0.00,VWS V14.01,2013-04-28 06:21:00,
2013-04-28 02:26:00,51.4,33.9,30.05,SSE,158,0.0,0.0,51,0.00,,---,0.00,VWS V14.01,2013-04-28 06:26:00,
2013-04-28 02:31:00,51.2,33.7,30.05,SSE,158,0.0,0.0,51,0.00,,---,0.00,VWS V14.01,2013-04-28 06:31:00,
2013-04-28 02:36:00,51.0,33.5,30.05,SSE,158,0.0,0.0,51,0.00,,---,0.00,VWS V14.01,2013-04-28 06:36:00,
2013-04-28 02:41:00,50.9,33.4,30.05,SSE,158,0.0,0.0,51,0.00,,---,0.00,VWS V14.01,2013-04-28 06:41:00,
2013-04-28 02:46:00,50.9,33.4,30.05,SSE,158,0.0,0.0,51,0.00,,---,0.00,VWS V14.01,2013-04-28 06:46:00,
2013-04-28 02:52:00,50.7,33.2,30.04,SSE,158,0.0,0.0,51,0.00,,---,0.00,VWS V14.01,2013-04-28 06:52:00,
2013-04-28 02:57:00,50.7,33.2,30.04,SSE,158,0.0,0.0,51,0.00,,---,0.00,VWS V14.01,2013-04-28 06:57:00,
2013-04-28 03:02:00,50.5,33.5,30.04,SSE,158,0.0,0.0,52,0.00,,---,0.00,VWS V14.01,2013-04-28 07:02:00,
2013-04-28 03:07:00,50.3,33.4,30.04,SSE,158,0.0,0.0,52,0.00,,---,0.00,VWS V14.01,2013-04-28 07:07:00,
2013-04-28 03:12:00,50.3,33.4,30.04,SSE,158,0.0,0.0,52,0.00,,---,0.00,VWS V14.01,2013-04-28 07:12:00,
2013-04-28 03:17:00,50.3,33.4,30.04,SSE,158,0.0,0.0,52,0.00,,---,0.00,VWS V14.01,2013-04-28 07:17:00,
2013-04-28 03:22:00,50.1,33.2,30.03,SSE,158,0.0,0.0,52,0.00,,---,0.00,VWS V14.01,2013-04-28 07:22:00,
2013-04-28 03:27:00,50.1,33.2,30.03,SSE,158,0.0,0.0,52,0.00,,---,0.00,VWS V14.01,2013-04-28 07:27:00,
2013-04-28 03:32:00,50.1,33.7,30.02,SSE,158,0.0,0.0,53,0.00,,---,0.00,VWS V14.01,2013-04-28 07:32:00,
2013-04-28 03:37:00,50.1,33.7,30.02,SSE,158,0.0,0.0,53,0.00,,---,0.00,VWS V14.01,2013-04-28 07:37:00,
2013-04-28 03:42:00,50.1,33.7,30.02,SSE,158,0.0,0.0,53,0.00,,---,0.00,VWS V14.01,2013-04-28 07:42:00,
2013-04-28 03:47:00,50.1,33.7,30.01,SE,135,0.0,0.0,53,0.00,,---,0.00,VWS V14.01,2013-04-28 07:47:00,
2013-04-28 03:52:00,50.1,33.7,30.01,SE,135,0.0,0.0,53,0.00,,---,0.00,VWS V14.01,2013-04-28 07:52:00,
2013-04-28 03:57:00,49.8,33.4,30.01,SE,135,0.0,0.0,53,0.00,,---,0.00,VWS V14.01,2013-04-28 07:57:00,
2013-04-28 04:02:00,49.6,33.2,30.01,SE,135,0.0,0.0,53,0.00,,---,0.00,VWS V14.01,2013-04-28 08:02:00,
2013-04-28 04:07:00,49.4,33.5,30.01,SE,135,0.0,0.0,54,0.00,,---,0.00,VWS V14.01,2013-04-28 08:07:00,
2013-04-28 04:12:00,49.2,33.3,30.00,SE,135,0.0,0.0,54,0.00,,---,0.00,VWS V14.01,2013-04-28 08:12:00,
2013-04-28 04:17:00,48.9,33.0,30.00,SE,135,0.0,0.0,54,0.00,,---,0.00,VWS V14.01,2013-04-28 08:17:00,
2013-04-28 04:22:00,48.7,33.3,30.01,SE,135,0.0,0.0,55,0.00,,---,0.00,VWS V14.01,2013-04-28 08:22:00,
2013-04-28 04:27:00,48.7,33.7,30.00,SE,135,0.0,0.0,56,0.00,,---,0.00,VWS V14.01,2013-04-28 08:27:00,
2013-04-28 04:32:00,48.5,33.5,30.00,SE,135,0.0,0.0,56,0.00,,---,0.00,VWS V14.01,2013-04-28 08:32:00,
2013-04-28 04:37:00,48.5,34.0,30.00,SE,135,0.0,0.0,57,0.00,,---,0.00,VWS V14.01,2013-04-28 08:37:00,
2013-04-28 04:42:00,48.5,34.0,30.00,SE,135,0.0,0.0,57,0.00,,---,0.00,VWS V14.01,2013-04-28 08:42:00,
2013-04-28 04:47:00,48.5,34.4,30.00,SE,135,0.0,0.0,58,0.00,,---,0.00,VWS V14.01,2013-04-28 08:47:00,
2013-04-28 04:52:00,48.7,34.6,30.00,SE,135,0.0,0.0,58,0.00,,---,0.00,VWS V14.01,2013-04-28 08:52:00,
2013-04-28 04:57:00,48.9,34.8,30.00,SE,135,0.0,0.0,58,0.00,,---,0.00,VWS V14.01,2013-04-28 08:57:00,
2013-04-28 05:02:00,49.1,35.0,30.00,SE,135,0.0,0.0,58,0.00,,---,0.00,VWS V14.01,2013-04-28 09:02:00,
2013-04-28 05:07:00,49.1,35.0,30.00,SE,135,0.0,0.0,58,0.00,,---,0.00,VWS V14.01,2013-04-28 09:07:00,
2013-04-28 05:12:00,49.2,35.1,30.00,SE,135,0.0,0.0,58,0.00,,---,0.00,VWS V14.01,2013-04-28 09:12:00,
2013-04-28 05:17:00,49.2,35.1,30.00,SE,135,0.0,0.0,58,0.00,,---,0.00,VWS V14.01,2013-04-28 09:17:00,
2013-04-28 05:22:00,49.6,35.5,30.00,SE,135,0.0,0.0,58,0.00,,---,0.00,VWS V14.01,2013-04-28 09:22:00,
2013-04-28 05:27:00,49.6,35.5,30.00,SE,135,0.0,0.0,58,0.00,,---,0.00,VWS V14.01,2013-04-28 09:27:00,
2013-04-28 05:32:00,49.8,35.6,30.00,SE,135,0.0,0.0,58,0.00,,---,0.00,VWS V14.01,2013-04-28 09:32:00,
2013-04-28 05:37:00,49.8,36.1,30.00,ESE,112,0.0,0.0,59,0.00,,---,0.00,VWS V14.01,2013-04-28 09:37:00,
2013-04-28 05:42:00,49.8,36.1,30.00,ESE,112,0.0,0.0,59,0.00,,---,0.00,VWS V14.01,2013-04-28 09:42:00,
2013-04-28 05:47:00,50.1,36.3,30.00,ESE,112,0.0,0.0,59,0.00,,---,0.00,VWS V14.01,2013-04-28 09:47:00,
2013-04-28 05:52:00,50.1,36.3,29.99,ESE,112,0.0,0.0,59,0.00,,---,0.00,VWS V14.01,2013-04-28 09:52:00,
2013-04-28 05:57:00,50.1,36.3,29.99,East,90,0.0,0.0,59,0.00,,---,0.00,VWS V14.01,2013-04-28 09:57:00,
2013-04-28 06:02:00,50.3,36.5,29.99,East,90,0.0,0.0,59,0.00,,---,0.00,VWS V14.01,2013-04-28 10:02:00,
2013-04-28 06:07:00,50.3,36.1,29.99,East,90,0.0,0.0,58,0.00,,---,0.00,VWS V14.01,2013-04-28 10:07:00,
2013-04-28 06:12:00,50.3,36.1,29.99,East,90,0.0,0.0,58,0.00,,---,0.00,VWS V14.01,2013-04-28 10:12:00,
2013-04-28 06:17:00,50.3,36.1,29.98,East,90,0.0,0.0,58,0.00,,---,0.00,VWS V14.01,2013-04-28 10:17:00,
2013-04-28 06:22:00,50.5,36.7,29.98,East,90,0.0,0.0,59,0.00,,---,0.00,VWS V14.01,2013-04-28 10:22:00,
2013-04-28 06:27:00,50.5,36.7,29.99,East,90,0.0,0.0,59,0.00,,---,0.00,VWS V14.01,2013-04-28 10:27:00,
2013-04-28 06:32:00,50.5,36.7,29.98,East,90,0.0,0.0,59,0.00,,---,0.00,VWS V14.01,2013-04-28 10:32:00,
2013-04-28 06:37:00,50.5,36.7,29.99,East,90,0.0,0.0,59,0.00,,---,0.00,VWS V14.01,2013-04-28 10:37:00,
2013-04-28 06:42:00,50.5,36.7,29.99,East,90,0.0,0.0,59,0.00,,---,0.00,VWS V14.01,2013-04-28 10:42:00,
2013-04-28 06:47:00,50.5,36.7,29.98,East,90,0.0,0.0,59,0.00,,---,0.00,VWS V14.01,2013-04-28 10:47:00,
2013-04-28 06:52:00,50.5,36.7,29.99,East,90,0.0,0.0,59,0.00,,---,0.00,VWS V14.01,2013-04-28 10:52:00,
2013-04-28 06:57:00,50.7,36.9,29.98,East,90,0.0,0.0,59,0.00,,---,0.00,VWS V14.01,2013-04-28 10:57:00,
2013-04-28 07:02:00,50.7,36.9,29.97,ENE,68,0.0,0.0,59,0.00,,---,0.00,VWS V14.01,2013-04-28 11:02:00,
2013-04-28 07:07:00,50.7,36.5,29.98,ENE,68,0.0,0.0,58,0.00,,---,0.00,VWS V14.01,2013-04-28 11:07:00,
2013-04-28 07:12:00,50.7,36.5,29.98,ENE,68,0.0,0.0,58,0.00,,---,0.00,VWS V14.01,2013-04-28 11:12:00,
2013-04-28 07:17:00,50.7,36.5,29.98,ENE,68,0.0,0.0,58,0.00,,---,0.00,VWS V14.01,2013-04-28 11:17:00,
2013-04-28 07:22:00,50.9,36.7,29.97,ENE,68,0.0,0.0,58,0.00,,---,0.00,VWS V14.01,2013-04-28 11:22:00,
2013-04-28 07:27:00,51.0,36.8,29.97,NE,45,0.0,0.0,58,0.00,,---,0.00,VWS V14.01,2013-04-28 11:27:00,
2013-04-28 07:32:00,51.0,36.8,29.97,NE,45,0.0,0.0,58,0.00,,---,0.00,VWS V14.01,2013-04-28 11:32:00,
2013-04-28 07:37:00,51.2,37.0,29.97,NE,45,0.0,0.0,58,0.00,,---,0.00,VWS V14.01,2013-04-28 11:37:00,
2013-04-28 07:42:00,51.4,37.1,29.97,ENE,68,0.0,0.0,58,0.00,,---,0.00,VWS V14.01,2013-04-28 11:42:00,
2013-04-28 07:47:00,51.6,37.3,29.97,ENE,68,0.0,0.0,58,0.00,,---,0.00,VWS V14.01,2013-04-28 11:47:00,
2013-04-28 07:52:00,51.6,37.3,29.97,ENE,68,0.0,0.0,58,0.00,,---,0.00,VWS V14.01,2013-04-28 11:52:00,
2013-04-28 07:57:00,51.9,37.6,29.97,ENE,68,0.0,0.0,58,0.00,,---,0.00,VWS V14.01,2013-04-28 11:57:00,
2013-04-28 08:02:00,52.3,37.5,29.97,ENE,68,0.0,0.0,57,0.00,,---,0.00,VWS V14.01,2013-04-28 12:02:00,
2013-04-28 08:07:00,52.3,37.5,29.96,ENE,68,0.0,0.0,57,0.00,,---,0.00,VWS V14.01,2013-04-28 12:07:00,
2013-04-28 08:12:00,52.5,37.7,29.96,ENE,68,0.0,0.0,57,0.00,,---,0.00,VWS V14.01,2013-04-28 12:12:00,
2013-04-28 08:18:00,52.8,38.0,29.96,NE,45,0.0,0.0,57,0.00,,---,0.00,VWS V14.01,2013-04-28 12:18:00,
2013-04-28 08:24:00,53.2,38.4,29.96,NE,45,0.0,0.0,57,0.00,,---,0.00,VWS V14.01,2013-04-28 12:24:00,
2013-04-28 08:29:00,53.4,38.6,29.96,ENE,68,0.0,0.0,57,0.00,,---,0.00,VWS V14.01,2013-04-28 12:29:00,
2013-04-28 08:34:00,53.7,38.4,29.96,SE,135,0.0,1.1,56,0.00,,---,0.00,VWS V14.01,2013-04-28 12:34:00,
2013-04-28 08:39:00,54.1,38.8,29.96,SE,135,0.0,0.0,56,0.00,,---,0.00,VWS V14.01,2013-04-28 12:39:00,
2013-04-28 08:44:00,54.3,39.0,29.96,SE,135,0.0,0.0,56,0.00,,---,0.00,VWS V14.01,2013-04-28 12:44:00,
2013-04-28 08:49:00,54.6,39.2,29.96,ESE,112,0.0,0.0,56,0.00,,---,0.00,VWS V14.01,2013-04-28 12:49:00,
2013-04-28 08:54:00,54.8,39.4,29.96,ESE,112,0.0,0.0,56,0.00,,---,0.00,VWS V14.01,2013-04-28 12:54:00,
2013-04-28 09:00:00,55.2,39.3,29.96,ESE,112,0.0,0.0,55,0.00,,---,0.00,VWS V14.01,2013-04-28 13:00:00,
2013-04-28 09:05:00,55.5,39.6,29.96,East,90,0.0,0.0,55,0.00,,---,0.00,VWS V14.01,2013-04-28 13:05:00,
2013-04-28 09:10:00,55.7,39.8,29.96,ESE,112,0.0,0.0,55,0.00,,---,0.00,VWS V14.01,2013-04-28 13:10:00,
2013-04-28 09:15:00,55.9,39.5,29.96,SSE,158,0.0,0.0,54,0.00,,---,0.00,VWS V14.01,2013-04-28 13:15:00,
2013-04-28 09:20:00,55.9,39.5,29.96,SSE,158,0.0,0.0,54,0.00,,---,0.00,VWS V14.01,2013-04-28 13:20:00,
2013-04-28 09:25:00,56.1,39.7,29.96,ENE,68,0.0,0.0,54,0.00,,---,0.00,VWS V14.01,2013-04-28 13:25:00,
2013-04-28 09:30:00,56.4,40.0,29.96,ENE,68,0.0,0.0,54,0.00,,---,0.00,VWS V14.01,2013-04-28 13:30:00,
2013-04-28 09:35:00,56.8,40.3,29.96,SE,135,0.0,0.0,54,0.00,,---,0.00,VWS V14.01,2013-04-28 13:35:00,
2013-04-28 09:40:00,57.0,40.5,29.96,East,90,0.0,0.0,54,0.00,,---,0.00,VWS V14.01,2013-04-28 13:40:00,
2013-04-28 09:45:00,57.3,40.8,29.96,ESE,112,0.0,0.0,54,0.00,,---,0.00,VWS V14.01,2013-04-28 13:45:00,
2013-04-28 09:50:00,57.5,41.0,29.96,ESE,112,0.0,0.0,54,0.00,,---,0.00,VWS V14.01,2013-04-28 13:50:00,
2013-04-28 09:55:00,57.9,41.4,29.96,ENE,68,0.0,0.0,54,0.00,,---,0.00,VWS V14.01,2013-04-28 13:55:00,
2013-04-28 10:00:00,58.1,41.1,29.96,East,90,0.0,0.0,53,0.00,,---,0.00,VWS V14.01,2013-04-28 14:00:00,
2013-04-28 10:05:00,58.2,41.2,29.96,ESE,112,0.0,0.0,53,0.00,,---,0.00,VWS V14.01,2013-04-28 14:05:00,
2013-04-28 10:10:00,58.4,41.3,29.96,ENE,68,0.0,0.0,53,0.00,,---,0.00,VWS V14.01,2013-04-28 14:10:00,
2013-04-28 10:15:00,58.8,41.7,29.96,ESE,112,0.0,0.0,53,0.00,,---,0.00,VWS V14.01,2013-04-28 14:15:00,
2013-04-28 10:20:00,58.8,41.7,29.96,East,90,0.0,0.0,53,0.00,,---,0.00,VWS V14.01,2013-04-28 14:20:00,
2013-04-28 10:25:00,59.1,42.0,29.95,ENE,68,0.0,0.0,53,0.00,,---,0.00,VWS V14.01,2013-04-28 14:25:00,
2013-04-28 10:30:00,59.7,42.6,29.95,NE,45,0.0,0.0,53,0.00,,---,0.00,VWS V14.01,2013-04-28 14:30:00,
2013-04-28 10:35:00,60.0,42.8,29.95,East,90,0.0,0.0,53,0.00,,---,0.00,VWS V14.01,2013-04-28 14:35:00,
2013-04-28 10:40:00,60.6,42.9,29.95,ENE,68,2.6,2.6,52,0.00,,---,0.00,VWS V14.01,2013-04-28 14:40:00,
2013-04-28 10:45:00,61.1,42.8,29.95,SE,135,0.0,0.0,51,0.00,,---,0.00,VWS V14.01,2013-04-28 14:45:00,
2013-04-28 10:50:00,61.5,43.7,29.94,SE,135,0.0,0.0,52,0.00,,---,0.00,VWS V14.01,2013-04-28 14:50:00,
2013-04-28 10:55:00,61.8,43.5,29.94,ESE,112,0.0,0.0,51,0.00,,---,0.00,VWS V14.01,2013-04-28 14:55:00,
2013-04-28 11:00:00,62.6,44.2,29.94,SSE,158,0.0,0.0,51,0.00,,---,0.00,VWS V14.01,2013-04-28 15:00:00,
2013-04-28 11:05:00,62.7,44.3,29.94,ENE,68,0.0,0.0,51,0.00,,---,0.00,VWS V14.01,2013-04-28 15:05:00,
2013-04-28 11:10:00,63.3,45.4,29.94,SE,135,0.0,0.0,52,0.00,,---,0.00,VWS V14.01,2013-04-28 15:10:00,
2013-04-28 11:15:00,63.8,45.3,29.94,SSE,158,0.0,0.0,51,0.00,,---,0.00,VWS V14.01,2013-04-28 15:15:00,
2013-04-28 11:20:00,64.2,45.7,29.94,East,90,0.0,0.0,51,0.00,,---,0.00,VWS V14.01,2013-04-28 15:20:00,
2013-04-28 11:25:00,64.7,46.2,29.94,SW,225,0.0,0.0,51,0.00,,---,0.00,VWS V14.01,2013-04-28 15:25:00,
2013-04-28 11:30:00,64.9,45.8,29.93,SSE,158,0.0,0.0,50,0.00,,---,0.00,VWS V14.01,2013-04-28 15:30:00,
2013-04-28 11:35:00,65.3,46.2,29.93,South,180,0.0,0.0,50,0.00,,---,0.00,VWS V14.01,2013-04-28 15:35:00,
2013-04-28 11:40:00,65.4,46.3,29.93,East,90,0.0,0.0,50,0.00,,---,0.00,VWS V14.01,2013-04-28 15:40:00,
2013-04-28 11:45:00,65.8,47.2,29.92,SSE,158,0.0,0.0,51,0.00,,---,0.00,VWS V14.01,2013-04-28 15:45:00,
2013-04-28 11:50:00,66.3,47.1,29.92,SE,135,0.0,0.0,50,0.00,,---,0.00,VWS V14.01,2013-04-28 15:50:00,
2013-04-28 11:55:00,66.7,47.5,29.92,SE,135,0.0,0.0,50,0.00,,---,0.00,VWS V14.01,2013-04-28 15:55:00,
2013-04-28 12:00:00,66.9,47.7,29.92,ENE,68,0.0,2.2,50,0.00,,---,0.00,VWS V14.01,2013-04-28 16:00:00,
2013-04-28 12:05:00,66.9,47.7,29.92,East,90,2.2,2.2,50,0.00,,---,0.00,VWS V14.01,2013-04-28 16:05:00,
2013-04-28 12:10:00,67.1,47.9,29.92,ENE,68,4.9,4.9,50,0.00,,---,0.00,VWS V14.01,2013-04-28 16:10:00,
2013-04-28 12:15:00,67.4,48.1,29.92,ENE,68,0.0,1.5,50,0.00,,---,0.00,VWS V14.01,2013-04-28 16:15:00,
2013-04-28 12:20:00,67.6,47.8,29.92,SE,135,0.0,0.0,49,0.00,,---,0.00,VWS V14.01,2013-04-28 16:20:00,
2013-04-28 12:25:00,67.6,47.8,29.91,SE,135,0.0,0.0,49,0.00,,---,0.00,VWS V14.01,2013-04-28 16:25:00,
2013-04-28 12:30:00,67.6,47.8,29.91,SSE,158,0.0,0.0,49,0.00,,---,0.00,VWS V14.01,2013-04-28 16:30:00,
2013-04-28 12:35:00,67.8,48.5,29.91,ESE,112,0.0,0.0,50,0.00,,---,0.00,VWS V14.01,2013-04-28 16:35:00,
2013-04-28 12:40:00,67.4,47.6,29.91,SSE,158,0.0,6.4,49,0.00,,---,0.00,VWS V14.01,2013-04-28 16:40:00,
2013-04-28 12:45:00,67.2,47.4,29.91,South,180,4.0,4.0,49,0.00,,---,0.00,VWS V14.01,2013-04-28 16:45:00,
2013-04-28 12:50:00,66.9,47.1,29.91,South,180,0.0,0.0,49,0.00,,---,0.00,VWS V14.01,2013-04-28 16:50:00,
2013-04-28 12:55:00,66.7,47.0,29.90,SSE,158,0.0,0.0,49,0.00,,---,0.00,VWS V14.01,2013-04-28 16:55:00,
2013-04-28 13:00:00,66.7,47.5,29.90,SE,135,1.7,1.7,50,0.00,,---,0.00,VWS V14.01,2013-04-28 17:00:00,
2013-04-28 13:05:00,67.1,47.9,29.89,SSE,158,0.0,0.0,50,0.00,,---,0.00,VWS V14.01,2013-04-28 17:05:00,
2013-04-28 13:10:00,67.8,48.5,29.89,SSE,158,1.5,1.5,50,0.00,,---,0.00,VWS V14.01,2013-04-28 17:10:00,
2013-04-28 13:16:00,67.8,48.0,29.89,SSW,202,0.6,0.6,49,0.00,,---,0.00,VWS V14.01,2013-04-28 17:16:00,
2013-04-28 13:21:00,67.6,47.8,29.89,SSE,158,5.1,5.8,49,0.00,,---,0.00,VWS V14.01,2013-04-28 17:21:00,
2013-04-28 13:26:00,67.2,47.4,29.89,SSE,158,2.2,2.2,49,0.00,,---,0.00,VWS V14.01,2013-04-28 17:26:00,
2013-04-28 13:31:00,67.1,47.9,29.89,South,180,5.5,5.5,50,0.00,,---,0.00,VWS V14.01,2013-04-28 17:31:00,
2013-04-28 13:36:00,66.9,48.2,29.89,SSE,158,0.0,6.9,51,0.00,,---,0.00,VWS V14.01,2013-04-28 17:36:00,
2013-04-28 13:41:00,67.1,48.4,29.89,SSW,202,1.7,1.7,51,0.00,,---,0.00,VWS V14.01,2013-04-28 17:41:00,
2013-04-28 13:46:00,67.1,48.4,29.89,SW,225,4.4,4.4,51,0.00,,---,0.00,VWS V14.01,2013-04-28 17:46:00,
2013-04-28 13:51:00,66.9,48.2,29.89,SSE,158,0.0,7.3,51,0.00,,---,0.00,VWS V14.01,2013-04-28 17:51:00,
2013-04-28 13:56:00,67.1,48.9,29.89,South,180,8.5,8.5,52,0.00,,---,0.00,VWS V14.01,2013-04-28 17:56:00,
2013-04-28 14:01:00,66.9,48.7,29.89,South,180,6.0,6.0,52,0.00,,---,0.00,VWS V14.01,2013-04-28 18:01:00,
2013-04-28 14:06:00,66.5,48.9,29.89,East,90,6.9,13.1,53,0.00,,---,0.00,VWS V14.01,2013-04-28 18:06:00,
2013-04-28 14:11:00,66.2,48.6,29.88,SSW,202,0.0,2.0,53,0.00,,---,0.00,VWS V14.01,2013-04-28 18:11:00,
2013-04-28 14:16:00,66.0,48.9,29.88,South,180,7.8,7.8,54,0.00,,---,0.00,VWS V14.01,2013-04-28 18:16:00,
2013-04-28 14:21:00,66.0,48.9,29.89,South,180,0.8,0.8,54,0.00,,---,0.00,VWS V14.01,2013-04-28 18:21:00,
2013-04-28 14:26:00,65.8,49.2,29.88,SE,135,0.0,0.0,55,0.00,,---,0.00,VWS V14.01,2013-04-28 18:26:00,
2013-04-28 14:31:00,65.8,49.2,29.88,SSE,158,7.3,7.3,55,0.00,,---,0.00,VWS V14.01,2013-04-28 18:31:00,
2013-04-28 14:36:00,65.4,48.8,29.88,SE,135,7.3,7.3,55,0.00,,---,0.00,VWS V14.01,2013-04-28 18:36:00,
2013-04-28 14:41:00,65.3,49.2,29.88,SSE,158,4.4,4.4,56,0.00,,---,0.00,VWS V14.01,2013-04-28 18:41:00,
2013-04-28 14:46:00,64.9,48.8,29.88,SSE,158,0.0,0.0,56,0.00,,---,0.00,VWS V14.01,2013-04-28 18:46:00,
2013-04-28 14:51:00,64.9,49.3,29.88,SE,135,0.0,0.6,57,0.00,,---,0.00,VWS V14.01,2013-04-28 18:51:00,
2013-04-28 14:56:00,64.7,49.6,29.88,SSE,158,5.3,5.3,58,0.00,,---,0.00,VWS V14.01,2013-04-28 18:56:00,
2013-04-28 15:01:00,64.7,49.6,29.88,ESE,112,0.0,0.0,58,0.00,,---,0.00,VWS V14.01,2013-04-28 19:01:00,
2013-04-28 15:06:00,64.5,49.9,29.88,ESE,112,0.0,2.0,59,0.00,,---,0.00,VWS V14.01,2013-04-28 19:06:00,
2013-04-28 15:11:00,64.2,50.5,29.88,South,180,0.0,0.0,61,0.00,,---,0.00,VWS V14.01,2013-04-28 19:11:00,
2013-04-28 15:16:00,63.6,50.4,29.88,SE,135,0.0,0.0,62,0.00,,---,0.00,VWS V14.01,2013-04-28 19:16:00,
2013-04-28 15:21:00,63.1,50.7,29.88,SSE,158,0.0,1.1,64,0.00,,---,0.00,VWS V14.01,2013-04-28 19:21:00,
2013-04-28 15:26:00,62.9,51.0,29.88,SSE,158,0.0,0.0,65,0.00,,---,0.00,VWS V14.01,2013-04-28 19:26:00,
2013-04-28 15:31:00,62.7,50.8,29.88,ESE,112,0.0,0.0,65,0.00,,---,0.00,VWS V14.01,2013-04-28 19:31:00,
2013-04-28 15:36:00,62.9,51.4,29.88,ESE,112,0.0,0.0,66,0.00,,---,0.00,VWS V14.01,2013-04-28 19:36:00,
2013-04-28 15:41:00,62.9,51.8,29.88,SSE,158,0.0,0.0,67,0.00,,---,0.00,VWS V14.01,2013-04-28 19:41:00,
2013-04-28 15:46:00,62.9,51.8,29.88,ESE,112,0.0,0.0,67,0.00,,---,0.00,VWS V14.01,2013-04-28 19:46:00,
2013-04-28 15:51:00,62.7,52.0,29.88,SSE,158,0.0,0.0,68,0.00,,---,0.00,VWS V14.01,2013-04-28 19:51:00,
2013-04-28 15:56:00,62.7,52.0,29.88,SSE,158,0.0,0.0,68,0.00,,---,0.00,VWS V14.01,2013-04-28 19:56:00,
2013-04-28 16:01:00,62.7,52.0,29.87,NE,45,2.0,2.0,68,0.00,,---,0.00,VWS V14.01,2013-04-28 20:01:00,
2013-04-28 16:06:00,62.7,52.0,29.87,South,180,0.0,0.6,68,0.00,,---,0.00,VWS V14.01,2013-04-28 20:06:00,
2013-04-28 16:11:00,62.6,51.9,29.88,ESE,112,1.7,1.7,68,0.00,,---,0.00,VWS V14.01,2013-04-28 20:11:00,
2013-04-28 16:16:00,62.4,51.7,29.87,SE,135,5.5,5.5,68,0.00,,---,0.00,VWS V14.01,2013-04-28 20:16:00,
2013-04-28 16:21:00,61.8,51.1,29.87,SE,135,0.0,0.0,68,0.00,,---,0.00,VWS V14.01,2013-04-28 20:21:00,
2013-04-28 16:26:00,61.5,50.8,29.87,ESE,112,0.0,0.0,68,0.00,,---,0.00,VWS V14.01,2013-04-28 20:26:00,
2013-04-28 16:31:00,61.3,51.1,29.87,SE,135,0.0,0.0,69,0.00,,---,0.00,VWS V14.01,2013-04-28 20:31:00,
2013-04-28 16:36:00,60.9,51.1,29.87,ESE,112,3.8,3.8,70,0.00,,---,0.00,VWS V14.01,2013-04-28 20:36:00,
2013-04-28 16:41:00,60.6,50.8,29.87,SSE,158,0.0,0.0,70,0.00,,---,0.00,VWS V14.01,2013-04-28 20:41:00,
2013-04-28 16:46:00,60.0,50.6,29.87,SSE,158,0.6,0.6,71,0.00,,---,0.00,VWS V14.01,2013-04-28 20:46:00,
2013-04-28 16:51:00,59.3,49.9,29.87,SSE,158,0.0,0.0,71,0.00,,---,0.00,VWS V14.01,2013-04-28 20:51:00,
2013-04-28 16:56:00,58.8,49.8,29.87,SSE,158,0.0,0.0,72,0.00,,---,0.00,VWS V14.01,2013-04-28 20:56:00,
2013-04-28 17:01:00,58.8,49.8,29.87,SE,135,1.5,1.5,72,0.00,,---,0.00,VWS V14.01,2013-04-28 21:01:00,
2013-04-28 17:06:00,58.4,49.8,29.86,NW,315,0.0,0.0,73,0.00,,---,0.00,VWS V14.01,2013-04-28 21:06:00,
2013-04-28 17:11:00,58.1,49.5,29.86,SSW,202,0.0,0.0,73,0.00,,---,0.00,VWS V14.01,2013-04-28 21:11:00,
2013-04-28 17:16:00,57.9,49.7,29.87,ESE,112,0.0,0.0,74,0.00,,---,0.00,VWS V14.01,2013-04-28 21:16:00,
2013-04-28 17:21:00,57.7,49.5,29.86,South,180,0.0,0.0,74,0.00,,---,0.00,VWS V14.01,2013-04-28 21:21:00,
2013-04-28 17:26:00,57.3,49.1,29.86,West,270,0.0,0.0,74,0.00,,---,0.00,VWS V14.01,2013-04-28 21:26:00,
2013-04-28 17:31:00,57.3,49.1,29.86,SSE,158,0.0,0.0,74,0.00,,---,0.00,VWS V14.01,2013-04-28 21:31:00,
2013-04-28 17:36:00,57.0,49.2,29.86,ENE,68,0.0,0.0,75,0.00,,---,0.00,VWS V14.01,2013-04-28 21:36:00,
2013-04-28 17:41:00,57.0,49.2,29.86,ENE,68,0.0,0.0,75,0.00,,---,0.00,VWS V14.01,2013-04-28 21:41:00,
2013-04-28 17:46:00,57.0,49.5,29.86,SE,135,0.0,0.0,76,0.00,,---,0.00,VWS V14.01,2013-04-28 21:46:00,
2013-04-28 17:51:00,56.8,49.3,29.86,SE,135,0.0,0.0,76,0.00,,---,0.00,VWS V14.01,2013-04-28 21:51:00,
2013-04-28 17:56:00,56.8,49.3,29.86,SSE,158,0.0,0.0,76,0.00,,---,0.00,VWS V14.01,2013-04-28 21:56:00,
2013-04-28 18:01:00,56.8,49.3,29.85,East,90,0.0,0.0,76,0.00,,---,0.00,VWS V14.01,2013-04-28 22:01:00,
2013-04-28 18:06:00,56.4,48.9,29.86,South,180,0.0,2.0,76,0.00,,---,0.00,VWS V14.01,2013-04-28 22:06:00,
2013-04-28 18:11:00,56.4,48.9,29.86,East,90,0.0,0.0,76,0.00,,---,0.00,VWS V14.01,2013-04-28 22:11:00,
2013-04-28 18:16:00,56.4,49.3,29.86,SSE,158,0.0,0.0,77,0.00,,---,0.00,VWS V14.01,2013-04-28 22:16:00,
2013-04-28 18:21:00,56.4,49.3,29.85,South,180,0.0,0.0,77,0.00,,---,0.00,VWS V14.01,2013-04-28 22:21:00,
2013-04-28 18:26:00,56.4,49.3,29.85,ESE,112,0.0,0.0,77,0.00,,---,0.00,VWS V14.01,2013-04-28 22:26:00,
2013-04-28 18:31:00,56.4,49.6,29.85,ESE,112,0.0,0.0,78,0.00,,---,0.00,VWS V14.01,2013-04-28 22:31:00,
2013-04-28 18:36:00,56.8,50.0,29.85,ESE,112,0.0,0.0,78,0.00,,---,0.00,VWS V14.01,2013-04-28 22:36:00,
2013-04-28 18:41:00,56.8,50.0,29.84,East,90,0.0,0.0,78,0.00,,---,0.00,VWS V14.01,2013-04-28 22:41:00,
2013-04-28 18:46:00,57.0,50.2,29.84,SE,135,0.0,0.0,78,0.00,,---,0.00,VWS V14.01,2013-04-28 22:46:00,
2013-04-28 18:51:00,56.8,50.0,29.84,East,90,0.0,0.0,78,0.00,,---,0.00,VWS V14.01,2013-04-28 22:51:00,
2013-04-28 18:56:00,56.8,50.0,29.84,East,90,0.0,0.0,78,0.00,,---,0.00,VWS V14.01,2013-04-28 22:56:00,
2013-04-28 19:01:00,56.4,49.6,29.84,ESE,112,0.0,0.0,78,0.00,,---,0.00,VWS V14.01,2013-04-28 23:01:00,
2013-04-28 19:06:00,56.4,49.6,29.84,East,90,0.0,0.0,78,0.00,,---,0.00,VWS V14.01,2013-04-28 23:06:00,
2013-04-28 19:11:00,56.4,49.6,29.85,ESE,112,0.0,0.0,78,0.00,,---,0.00,VWS V14.01,2013-04-28 23:11:00,
2013-04-28 19:16:00,56.3,49.5,29.84,SE,135,0.0,0.0,78,0.00,,---,0.00,VWS V14.01,2013-04-28 23:16:00,
2013-04-28 19:21:00,56.1,49.3,29.84,East,90,0.0,0.0,78,0.00,,---,0.00,VWS V14.01,2013-04-28 23:21:00,
2013-04-28 19:26:00,56.1,49.3,29.84,SE,135,0.0,0.0,78,0.00,,---,0.00,VWS V14.01,2013-04-28 23:26:00,
2013-04-28 19:31:00,55.9,49.2,29.84,SE,135,0.0,0.0,78,0.00,,---,0.00,VWS V14.01,2013-04-28 23:31:00,
2013-04-28 19:36:00,55.9,49.2,29.84,ESE,112,0.0,0.0,78,0.00,,---,0.00,VWS V14.01,2013-04-28 23:36:00,
2013-04-28 19:41:00,55.9,49.2,29.84,ESE,112,0.0,0.0,78,0.00,,---,0.00,VWS V14.01,2013-04-28 23:41:00,
2013-04-28 19:46:00,55.9,49.2,29.85,East,90,0.0,0.0,78,0.00,,---,0.00,VWS V14.01,2013-04-28 23:46:00,
2013-04-28 19:51:00,55.9,49.2,29.84,SE,135,0.0,0.0,78,0.00,,---,0.00,VWS V14.01,2013-04-28 23:51:00,
2013-04-28 19:56:00,55.9,49.2,29.84,ESE,112,0.0,0.0,78,0.00,,---,0.00,VWS V14.01,2013-04-28 23:56:00,
2013-04-28 20:01:00,55.9,49.2,29.84,ENE,68,0.0,0.0,78,0.00,,---,0.00,VWS V14.01,2013-04-29 00:01:00,
2013-04-28 20:06:00,55.7,49.0,29.84,ESE,112,0.0,0.0,78,0.00,,---,0.00,VWS V14.01,2013-04-29 00:06:00,
2013-04-28 20:11:00,55.7,49.0,29.83,ESE,112,0.0,0.0,78,0.00,,---,0.00,VWS V14.01,2013-04-29 00:11:00,
2013-04-28 20:16:00,55.7,49.0,29.84,East,90,0.0,0.0,78,0.00,,---,0.00,VWS V14.01,2013-04-29 00:16:00,
2013-04-28 20:21:00,55.5,48.8,29.84,East,90,0.0,0.0,78,0.00,,---,0.00,VWS V14.01,2013-04-29 00:21:00,
2013-04-28 20:26:00,55.5,48.8,29.84,SSE,158,0.0,0.0,78,0.00,,---,0.00,VWS V14.01,2013-04-29 00:26:00,
2013-04-28 20:31:00,55.5,48.8,29.84,SE,135,0.0,0.0,78,0.00,,---,0.00,VWS V14.01,2013-04-29 00:31:00,
2013-04-28 20:36:00,55.5,48.8,29.84,SE,135,0.0,0.0,78,0.00,,---,0.00,VWS V14.01,2013-04-29 00:36:00,
2013-04-28 20:41:00,55.5,48.8,29.84,ESE,112,0.0,0.0,78,0.00,,---,0.00,VWS V14.01,2013-04-29 00:41:00,
2013-04-28 20:46:00,55.5,48.8,29.84,SE,135,0.0,0.0,78,0.00,,---,0.00,VWS V14.01,2013-04-29 00:46:00,
2013-04-28 20:51:00,55.5,49.1,29.84,SE,135,0.0,0.0,79,0.00,,---,0.00,VWS V14.01,2013-04-29 00:51:00,
2013-04-28 20:56:00,55.5,49.1,29.84,SSE,158,0.0,0.0,79,0.00,,---,0.00,VWS V14.01,2013-04-29 00:56:00,
2013-04-28 21:01:00,55.5,49.1,29.84,East,90,0.0,0.0,79,0.00,,---,0.00,VWS V14.01,2013-04-29 01:01:00,
2013-04-28 21:06:00,55.4,49.0,29.84,SE,135,0.0,0.0,79,0.00,,---,0.00,VWS V14.01,2013-04-29 01:06:00,
2013-04-28 21:11:00,55.4,49.0,29.84,ESE,112,0.0,0.0,79,0.00,,---,0.00,VWS V14.01,2013-04-29 01:11:00,
2013-04-28 21:16:00,55.4,49.0,29.84,ESE,112,0.0,0.0,79,0.00,,---,0.00,VWS V14.01,2013-04-29 01:16:00,
2013-04-28 21:21:00,55.2,48.8,29.84,SE,135,0.0,0.0,79,0.00,,---,0.00,VWS V14.01,2013-04-29 01:21:00,
2013-04-28 21:26:00,55.2,48.8,29.84,South,180,0.0,0.0,79,0.00,,---,0.00,VWS V14.01,2013-04-29 01:26:00,
2013-04-28 21:31:00,55.2,48.8,29.85,East,90,0.0,0.0,79,0.00,,---,0.00,VWS V14.01,2013-04-29 01:31:00,
2013-04-28 21:36:00,55.2,48.8,29.85,SE,135,0.0,0.0,79,0.00,,---,0.00,VWS V14.01,2013-04-29 01:36:00,
2013-04-28 21:41:00,55.2,48.8,29.85,ESE,112,0.0,0.0,79,0.00,,---,0.00,VWS V14.01,2013-04-29 01:41:00,
2013-04-28 21:46:00,55.2,48.8,29.85,SSE,158,0.0,0.0,79,0.00,,---,0.00,VWS V14.01,2013-04-29 01:46:00,
2013-04-28 21:51:00,55.2,48.8,29.85,SSE,158,0.0,0.0,79,0.00,,---,0.00,VWS V14.01,2013-04-29 01:51:00,
2013-04-28 21:56:00,55.2,48.8,29.85,SE,135,0.0,0.0,79,0.00,,---,0.00,VWS V14.01,2013-04-29 01:56:00,
2013-04-28 22:01:00,55.2,48.8,29.85,SSE,158,0.0,0.0,79,0.00,,---,0.00,VWS V14.01,2013-04-29 02:01:00,
2013-04-28 22:06:00,55.2,49.2,29.85,South,180,0.0,0.0,80,0.00,,---,0.00,VWS V14.01,2013-04-29 02:06:00,
2013-04-28 22:11:00,55.2,49.2,29.85,South,180,0.0,0.0,80,0.00,,---,0.00,VWS V14.01,2013-04-29 02:11:00,
2013-04-28 22:16:00,55.2,48.8,29.85,South,180,0.0,0.0,79,0.00,,---,0.00,VWS V14.01,2013-04-29 02:16:00,
2013-04-28 22:21:00,55.2,48.8,29.85,SW,225,0.0,0.0,79,0.00,,---,0.00,VWS V14.01,2013-04-29 02:21:00,
2013-04-28 22:26:00,55.2,48.8,29.85,SW,225,0.0,0.0,79,0.00,,---,0.00,VWS V14.01,2013-04-29 02:26:00,
2013-04-28 22:31:00,55.2,48.8,29.85,SW,225,0.0,0.0,79,0.00,,---,0.00,VWS V14.01,2013-04-29 02:31:00,
2013-04-28 22:36:00,55.2,48.8,29.85,SW,225,0.0,0.0,79,0.00,,---,0.00,VWS V14.01,2013-04-29 02:36:00,
2013-04-28 22:41:00,55.2,48.8,29.85,SW,225,0.0,0.0,79,0.00,,---,0.00,VWS V14.01,2013-04-29 02:41:00,
2013-04-28 22:46:00,55.2,48.8,29.85,SW,225,0.0,0.0,79,0.00,,---,0.00,VWS V14.01,2013-04-29 02:46:00,
2013-04-28 22:51:00,55.2,48.8,29.85,SW,225,0.0,0.0,79,0.00,,---,0.00,VWS V14.01,2013-04-29 02:51:00,
2013-04-28 22:56:00,55.2,48.8,29.85,SW,225,0.0,0.0,79,0.00,,---,0.00,VWS V14.01,2013-04-29 02:56:00,
2013-04-28 23:01:00,55.2,48.8,29.84,SW,225,0.0,0.0,79,0.00,,---,0.00,VWS V14.01,2013-04-29 03:01:00,
2013-04-28 23:06:00,55.2,48.8,29.84,SW,225,0.0,0.0,79,0.00,,---,0.00,VWS V14.01,2013-04-29 03:06:00,
2013-04-28 23:11:00,55.2,48.8,29.84,SW,225,0.0,0.0,79,0.00,,---,0.00,VWS V14.01,2013-04-29 03:11:00,
2013-04-28 23:16:00,55.2,48.8,29.84,SW,225,0.0,0.0,79,0.00,,---,0.00,VWS V14.01,2013-04-29 03:16:00,
2013-04-28 23:21:00,55.0,48.6,29.84,SW,225,0.0,0.0,79,0.00,,---,0.00,VWS V14.01,2013-04-29 03:21:00,
2013-04-28 23:26:00,55.0,48.6,29.84,SW,225,0.0,0.0,79,0.00,,---,0.00,VWS V14.01,2013-04-29 03:26:00,
2013-04-28 23:31:00,55.0,49.0,29.84,SW,225,0.0,0.0,80,0.00,,---,0.00,VWS V14.01,2013-04-29 03:31:00,
2013-04-28 23:36:00,55.0,49.0,29.83,SW,225,0.0,0.0,80,0.00,,---,0.00,VWS V14.01,2013-04-29 03:36:00,
2013-04-28 23:41:00,55.0,49.0,29.83,SW,225,0.0,0.0,80,0.00,,---,0.00,VWS V14.01,2013-04-29 03:41:00,
2013-04-28 23:46:00,55.0,49.0,29.83,SW,225,0.0,0.0,80,0.00,,---,0.00,VWS V14.01,2013-04-29 03:46:00,
2013-04-28 23:51:00,54.8,48.8,29.83,SW,225,0.0,0.0,80,0.00,,---,0.00,VWS V14.01,2013-04-29 03:51:00,
2013-04-28 23:56:00,54.8,48.8,29.83,SW,225,0.0,0.0,80,0.00,,---,0.00,VWS V14.01,2013-04-29 03:56:00,